Tracking 28790 objects as of 19-Apr-2024
HD Live streaming from Space Station
objects crossing your sky now

IRIDIUM 33 DEB

Track IRIDIUM 33 DEB now!
10-day predictions


NORAD ID: 34898
Int'l Code: 1997-051NA
Perigee: 491.6 km
Apogee: 501.3 km
Inclination: 86.3 °
Period: 94.4 minutes
Semi major axis: 6867 km
RCS: 0.005 m2 (small)
Launch date: September 14, 1997
Source: United States (US)
Launch site: TYURATAM MISSILE AND SPACE COMPLEX (TTMTR)

Note: This is SATELLITE DEBRIS
Your satellite tracking list
Your tracking list is empty




NASA's NSSDC Master Catalog

Two Line Element Set (TLE):
1 34898U 97051NA  24106.15589849  .00208625  00000-0  80225-2 0  9998
2 34898  86.3190 179.6023 0007020 159.0001 201.1535 15.25492361  1987
Source of the keplerian elements: AFSPC